Theta_e
314 311 310 310 310 311 311 311 310 311 312 312 312 314 313 313 313 313 313 313 314 314 314 314 314 315 313 312 313 314 312 310 307 311 309 309 308 309 310 309 309 308 308
315 313 310 311 311 310 310 311 312 310 311 313 313 312 313 313 313 313 312 313 313 313 314 313 314 315 314 315 312 312 311 311 311 309 309 306 306 303 303 304 305 308 307
315 313 311 310 311 310 310 311 312 311 311 312 313 312 312 313 313 313 313 313 313 313 314 314 314 314 314 315 313 312 311 311 311 312 311 301 300 300 299 299 300 300 302
315 314 312 311 311 312 312 312 312 313 311 310 312 313 312 312 313 313 314 313 314 314 315 315 315 315 315 314 313 311 311 310 309 311 311 309 298 296 297 296 294 295 295
315 315 314 313 313 312 313 313 312 312 312 311 311 311 312 311 311 311 312 312 312 312 312 315 315 312 305 306 311 311 310 310 309 309 309 295 292 291 292 292 290 290 290
314 314 315 316 315 314 313 314 313 312 312 312 311 311 310 311 302 300 306 310 309 310 310 310 300 296 294 293 294 294 300 310 309 307 299 291 288 288 288 288 287 287 286
315 315 315 315 314 317 316 315 313 313 313 311 311 310 310 310 299 298 298 310 310 310 310 305 296 293 291 289 288 288 287 287 286 294 290 286 285 286 287 285 285 285 284
315 315 315 314 314 314 317 316 315 314 313 313 311 310 310 309 299 298 296 305 306 301 304 303 299 290 290 289 286 284 284 284 284 285 284 282 282 283 283 283 282 281 281
309 314 316 316 315 314 314 315 316 315 314 314 314 313 311 310 298 297 297 300 292 289 289 291 291 289 289 289 284 282 281 282 285 285 284 284 283 283 283 282 279 279 278
299 300 303 308 316 315 315 314 315 316 315 314 310 301 303 311 292 294 298 295 287 285 285 286 287 287 285 285 283 282 281 280 280 280 279 280 280 280 280 279 279 277 276
294 294 294 296 300 304 315 315 315 314 299 294 289 288 288 290 290 291 292 292 287 284 283 283 284 285 285 285 284 282 280 281 279 278 278 277 277 277 277 276 276 276 274
289 289 288 289 291 294 294 294 293 293 289 286 286 285 285 285 286 287 288 286 286 283 282 283 284 284 284 283 283 282 281 279 278 277 275 275 274 274 274 275 275 275 275
285 284 285 286 287 287 288 288 287 287 285 285 284 283 283 283 283 285 284 284 284 282 282 283 283 283 282 280 280 279 278 277 275 274 273 273 273 273 274 273 273 273 273
283 282 283 283 283 284 285 286 285 284 282 282 281 280 281 281 282 283 283 283 283 282 281 280 279 278 277 276 276 276 276 275 274 273 272 272 272 271 271 271 270 270 269
282 282 282 282 282 282 282 283 283 284 285 282 281 281 280 279 281 283 282 281 280 279 279 278 276 275 274 274 274 274 274 273 272 272 271 270 269 269 269 269 269 268 266
280 280 280 281 281 281 281 281 284 284 284 284 284 283 283 283 284 283 283 282 281 280 276 274 273 273 272 272 271 271 271 271 271 270 269 269 268 268 267 267 267 266 264
276 277 278 278 279 279 279 279 277 279 281 282 283 283 283 282 282 281 280 279 278 276 272 272 271 271 271 270 270 269 268 269 269 268 267 267 267 266 265 265 264 264 263
275 276 277 276 276 276 275 274 274 273 272 273 278 279 280 280 279 279 278 275 272 272 271 270 269 269 269 269 268 268 267 267 266 265 263 262 262 263 262 263 263 259 261
276 275 274 275 275 275 274 273 272 272 271 271 271 271 273 276 275 275 274 270 269 268 268 268 267 267 267 266 264 263 263 261 260 259 260 259 255 260 259 260 260 259 259
275 274 274 273 273 273 273 272 271 271 270 269 269 269 270 269 267 266 267 267 267 267 267 266 266 265 264 264 261 262 261 260 259 258 251 250 250 255 257 255 254 255 260
274 274 273 273 272 272 271 270 270 269 268 267 266 267 267 265 264 264 264 264 264 264 263 263 263 262 261 260 261 258 257 252 256 256 256 257 249 254 258 257 256 258 259
274 273 273 272 271 270 270 270 269 268 267 265 265 265 265 264 263 262 262 261 260 261 262 261 261 260 260 260 257 253 253 251 251 254 253 254 255 254 254 253 253 252 256
272 271 271 270 270 269 268 268 267 266 265 264 264 263 262 261 260 260 258 257 258 257 258 258 258 258 257 255 255 256 255 255 255 252 250 250 254 254 249 251 253 252 252
270 269 269 268 267 266 266 265 265 264 264 263 262 261 260 259 258 257 254 254 256 255 254 255 256 256 256 251 252 254 258 253 253 252 249 249 252 254 251 252 253 252 252
268 267 266 265 265 264 264 264 263 263 262 262 261 260 259 258 257 253 253 253 255 253 253 251 251 253 252 252 254 256 253 253 250 252 250 250 250 250 251 252 251 253 253
267 266 265 265 264 263 262 261 261 261 260 260 258 257 258 257 256 252 254 254 254 253 254 253 253 252 252 254 256 256 253 254 251 252 248 251 250 250 251 251 252 252 255
Wind_Speed
16 12 12 11 11 10 10 9 9 8 10 11 10 9 11 13 13 13 13 9 7 7 6 8 7 6 4 4 4 5 9 5 6 5 4 4 5 6 5 4 3 3 4
15 13 12 12 12 11 10 10 11 11 10 12 11 12 13 12 12 13 14 14 9 7 7 6 8 4 7 9 5 8 8 6 7 14 6 4 6 1 1 1 1 0 2
16 14 12 12 13 13 12 11 10 11 12 11 12 12 12 13 14 15 16 15 13 13 12 10 10 9 12 10 10 9 6 5 7 8 10 2 1 2 2 2 2 3 4
16 16 13 13 13 13 13 12 12 12 11 12 13 14 13 12 13 13 14 15 14 13 13 12 12 12 13 11 9 9 7 6 6 8 8 7 3 2 2 2 1 3 2
14 15 15 12 12 11 12 13 13 13 12 12 12 12 14 13 11 13 13 12 10 9 7 9 10 10 8 8 7 9 9 8 8 8 9 3 3 2 3 2 3 4 2
10 10 10 10 11 11 12 12 12 13 13 12 13 13 12 11 14 17 14 11 9 10 11 9 7 10 8 8 6 1 4 10 12 8 4 5 4 3 3 2 3 1 2
11 12 11 11 11 12 12 12 13 13 12 14 14 14 15 14 15 16 17 12 11 12 13 8 5 3 7 9 12 14 15 16 8 2 4 3 4 4 4 2 3 3 3
9 9 9 10 11 10 12 13 13 11 13 13 13 14 14 13 15 17 17 13 11 6 7 9 10 9 8 10 10 11 12 14 11 10 13 11 11 8 7 4 3 5 6
5 2 7 11 13 12 13 12 12 12 12 13 12 14 15 14 16 17 14 8 6 5 4 5 7 9 14 18 14 16 14 13 21 27 27 26 27 23 15 6 6 4 3
9 9 9 10 12 14 14 14 12 10 12 10 10 1 6 13 6 11 15 8 8 7 7 8 12 14 17 16 14 12 13 10 10 12 12 15 17 17 18 10 6 5 2
8 8 9 10 8 8 10 11 11 10 6 6 7 7 7 5 7 9 9 9 10 9 8 9 9 22 23 23 18 12 13 11 13 10 9 8 9 9 9 9 9 7 5
11 11 11 10 9 8 9 9 10 8 8 8 9 7 6 8 12 17 20 18 16 15 12 11 15 26 27 24 17 23 20 11 8 9 9 7 6 7 7 7 9 7 7
12 12 11 11 10 10 10 10 9 11 9 8 8 8 7 8 10 26 30 28 26 18 13 22 28 28 29 21 23 20 13 8 9 8 8 7 6 7 8 8 8 7 7
12 12 11 12 12 11 9 8 9 9 10 10 8 8 9 8 7 7 11 17 27 21 19 14 18 16 20 15 12 13 8 6 9 7 6 6 6 6 6 6 4 5 4
10 9 11 11 13 13 14 10 9 7 8 11 11 11 10 10 9 12 10 9 9 13 17 13 12 11 9 8 9 9 7 7 8 7 5 6 6 6 5 6 6 5 4
10 9 9 9 9 10 12 16 32 26 26 22 19 13 11 23 29 25 27 25 24 17 11 10 11 9 8 7 7 8 7 8 7 6 6 5 5 5 5 5 5 4 3
8 9 9 10 8 9 10 11 15 21 34 32 31 29 28 26 27 27 27 28 22 17 11 8 9 9 8 7 7 7 7 6 7 6 6 5 4 5 5 4 4 4 4
10 12 9 8 8 9 9 10 10 11 13 14 26 23 27 26 25 22 21 18 12 13 9 8 8 8 8 7 7 7 6 5 6 5 5 5 4 3 3 4 4 2 2
8 8 9 9 9 10 9 10 10 11 10 10 8 13 15 25 25 24 22 10 9 9 8 8 7 7 7 7 6 6 5 4 4 4 4 4 3 3 3 2 3 4 3
10 14 11 8 8 9 8 9 9 10 10 10 9 8 7 9 10 10 9 8 8 8 7 8 7 7 6 6 4 5 6 5 5 4 2 3 3 1 2 2 2 2 3
7 9 12 9 9 8 9 9 9 9 9 9 9 9 12 10 8 7 8 8 7 7 7 7 6 5 4 4 4 4 5 3 3 3 2 2 2 2 2 2 3 3 4
8 8 8 9 8 9 9 8 9 9 9 9 8 9 13 9 8 8 8 7 6 6 5 6 5 4 3 3 3 4 4 3 1 2 2 1 1 1 2 1 2 3 4
8 9 9 8 8 10 9 8 8 8 8 8 8 7 7 7 7 7 6 5 5 5 4 4 4 3 3 3 3 2 3 3 3 3 3 2 1 2 2 2 3 3 2
8 9 9 8 7 8 8 8 8 10 8 7 7 7 6 6 6 6 4 3 4 4 4 4 3 4 2 1 0 1 2 2 2 3 4 2 1 2 2 2 3 4 4
8 8 8 8 8 7 7 8 7 7 6 6 6 6 6 5 5 4 3 3 4 3 3 2 2 2 2 1 3 3 2 3 2 2 2 1 2 3 2 3 4 5 4
8 8 7 7 7 7 6 6 6 6 5 5 5 4 4 4 4 2 2 2 2 2 2 2 3 4 5 2 3 3 3 4 3 4 0 0 1 3 3 5 6 3 6
Wind_Direction
183 172 172 177 171 162 172 166 172 159 155 165 169 160 163 167 180 188 199 217 208 203 167 189 203 201 204 194 197 210 228 183 240 266 240 228 220 230 252 239 248 245 270
185 177 174 173 171 174 174 176 168 175 169 172 176 177 173 178 186 195 204 217 214 213 213 189 220 198 252 247 223 221 216 205 215 258 241 231 218 211 182 198 248 194 297
187 181 177 176 177 179 180 177 180 180 180 177 174 181 188 192 194 202 211 221 226 223 217 207 222 210 225 232 230 228 220 216 214 237 266 157 163 191 147 89 89 81 66
184 186 182 185 185 185 179 182 187 188 184 186 186 186 186 193 201 209 213 219 224 227 226 222 227 219 223 223 224 226 230 227 219 231 242 251 195 158 109 154 116 18 80
193 192 195 185 188 190 190 184 186 192 194 192 196 199 197 197 196 200 207 211 210 215 217 223 228 227 222 231 225 231 226 226 231 236 249 173 182 180 203 156 135 153 90
184 195 199 193 194 195 197 197 191 193 197 194 201 203 207 212 210 203 203 211 205 205 214 214 174 155 159 152 163 177 263 238 241 239 218 190 181 163 146 148 128 173 150
199 193 194 193 195 199 199 203 204 197 197 203 203 207 213 213 206 204 206 218 217 223 228 209 181 144 135 112 92 78 59 48 32 148 123 73 68 18 24 64 74 67 49
204 203 201 196 201 206 207 208 206 209 206 207 208 209 217 221 207 207 206 218 223 227 219 190 186 159 148 139 113 87 69 54 47 73 79 71 70 45 63 77 351 88 96
29 304 221 199 206 209 213 212 205 205 210 214 213 212 216 220 204 208 199 201 145 117 92 99 136 140 143 140 123 112 98 91 82 80 79 79 74 59 55 60 41 53 48
26 4 350 338 233 212 209 208 211 211 213 208 212 269 223 228 179 203 184 164 135 120 96 87 99 116 111 114 110 109 97 83 80 84 79 70 64 65 55 47 63 71 51
23 27 18 5 359 343 229 207 205 207 121 98 90 55 47 58 88 107 153 156 146 125 110 100 97 108 110 103 95 99 103 110 96 82 65 68 65 61 66 46 41 43 49
15 31 23 17 17 24 50 43 48 54 81 87 84 53 68 78 83 86 87 92 109 111 105 104 104 98 92 89 88 104 102 97 95 95 81 61 65 68 65 66 50 47 47
31 31 27 26 27 34 45 63 71 73 74 70 77 82 62 37 64 103 104 101 100 95 96 102 97 98 97 80 80 67 70 74 82 69 84 87 70 62 55 53 44 47 56
54 39 34 41 37 36 48 46 66 74 75 72 54 71 70 70 60 65 89 104 105 107 104 92 84 75 78 76 76 68 65 59 84 91 84 85 79 72 60 51 49 27 42
59 57 55 53 53 57 53 47 49 46 102 112 114 103 95 75 56 73 49 82 69 95 107 96 89 87 74 73 81 78 73 68 66 79 76 71 71 74 63 53 42 39 40
67 59 55 65 62 66 74 75 59 63 62 66 76 88 95 98 104 97 98 90 86 75 62 78 89 87 86 85 77 77 72 80 80 78 70 75 69 66 69 53 41 35 11
60 67 65 59 60 67 73 73 84 65 62 58 62 71 74 84 87 90 87 85 82 82 84 78 79 88 91 85 85 81 75 68 76 71 69 61 58 59 53 42 32 23 358
56 57 67 64 65 63 61 68 68 70 75 65 58 66 67 72 74 75 80 74 64 65 77 78 81 81 80 87 84 82 71 68 72 72 65 60 53 61 43 30 19 339 318
64 60 68 70 68 70 73 73 72 75 67 73 59 51 49 67 66 64 64 69 76 73 73 75 65 69 73 72 75 81 85 73 71 68 48 58 30 57 33 16 358 357 322
66 65 64 64 66 69 63 73 70 67 68 60 55 48 56 58 53 50 53 61 67 72 71 72 67 68 77 83 75 85 86 80 73 67 50 54 23 55 43 359 341 301 315
73 70 71 67 63 64 70 67 69 71 71 72 62 56 63 78 72 64 60 53 60 62 64 72 65 63 64 59 76 73 80 73 76 80 65 51 33 20 324 278 265 302 328
67 72 71 73 72 66 64 68 74 75 76 78 75 57 63 69 70 66 62 54 46 59 62 76 72 63 59 86 101 97 103 114 101 88 84 359 326 288 286 312 337 342 327
68 71 70 71 74 77 74 73 74 73 73 72 76 73 64 66 67 63 60 45 46 49 45 71 81 71 50 52 57 132 143 167 173 151 165 204 26 6 352 320 312 313 307
69 74 78 73 68 71 72 76 76 74 80 77 74 76 74 72 72 71 59 50 62 54 41 55 58 59 39 30 5 215 113 148 171 174 152 118 322 317 315 301 295 285 275
63 70 70 73 77 78 79 75 75 75 78 82 86 86 85 82 76 65 69 59 69 58 34 21 35 61 41 100 103 59 357 33 97 111 120 188 280 300 291 276 265 281 281
66 68 68 70 73 73 75 77 76 83 85 80 87 91 98 96 94 97 80 75 60 46 33 19 33 36 19 6 324 26 47 37 359 335 10 278 289 287 264 258 274 269 288